Location: Bad Rothenbrunn
(47.2167°N, 11.2167°E)
Time: 10:21:01
(UTC+00:00)

FALCON 9 DEB - Pass Details

Date: 03 March 2021
Orbit: 365 x 386 km, 53.0° (Epoch: 22 April)

Event Time Altitude Azimuth Distance (km) Brightness Sun altitude
Rises 17:47:01 0° 283° (WNW) 2,301 8.7 -8.2°
Reaches altitude 10° 17:49:16 10° 295° (WNW) 1,443 6.9 -8.6°
Maximum altitude 17:52:07 28° 357° (N) 785 4.5 -9.1°
Enters shadow 17:54:54 10° 58° (ENE) 1,416 5.2 -9.5°
